Weather History for Springfield, IL

Change the Weather History Date:

Sunday, July 20, 2014

  Actual Average Record
Temperature  
Mean Temperature 71 °F 76 °F  
Max Temperature 84 °F 86 °F 106 °F (1934)
Min Temperature 57 °F 66 °F 52 °F (2009)
Degree Days  
Heating Degree Days 0 0  
Month to date heating degree days 3 0  
Since 1 June heating degree days 3 15  
Since 1 July heating degree days 3 0  
Cooling Degree Days 6 11  
Month to date cooling degree days 139 220  
Year to date cooling degree days 621 564  
Since 1 June cooling degree days 445 460  
Growing Degree Days 20 (Base 50)    
Moisture  
Dew Point 59 °F    
Average Humidity 70    
Maximum Humidity 93    
Minimum Humidity 47    
Precipitation  
Precipitation 0.00 in 0.13 in 1.92 in (1935)
Month to date precipitation 1.07 2.60  
Year to date precipitation 24.23 21.07  
Snow  
Snow 0.00 in 0.00 in 0.00 in ()
Month to date snowfall 0.0 0.0  
Since 1 June snowfall 0.0 0.0  
Since 1 July snowfall 0.0 0.0  
Snow Depth 0.00 in    
Sea Level Pressure  
Sea Level Pressure 30.04 in    
Wind  
Wind Speed 3 mph (SE)    
Max Wind Speed 9 mph    
Max Gust Speed 11 mph    
Visibility 8 miles    
Events      
T = Trace of Precipitation, MM = Missing Value Source: NWS Daily Summary

Daily Weather History Graph

Daily Weather History Graph

Search for Another Location

Airport:

Trip Planner

Search our weather history database for the weather conditions in past years. The results will help you decide how hot, cold, wet, or windy it might be!

Date:

Astronomy

Jul. 20, 2014 Rise Set
Actual Time 5:46 AM CDT 8:22 PM CDT
Civil Twilight 5:15 AM CDT 8:54 PM CDT
Nautical Twilight 4:36 AM CDT 9:32 PM CDT
Astronomical Twilight 3:52 AM CDT 10:16 PM CDT
Moon 12:58 AM CDT (7/20) 3:06 PM CDT (7/20)
Length of Visible Light 15h 38m
Length of Day
14h 35m
Waning Crescent, 33% of the Moon is Illuminated
Jul 20
Waning Crescent
Jul 26
New
Aug 3
First Quarter
Aug 10
Full
Aug 17
Last Quarter

Hourly Weather History & Observations

Time (CDT) Temp. Heat Index Dew Point Humidity Pressure Visibility Wind Dir Wind Speed Gust Speed Precip Events Conditions
12:52 AM 61.0 °F - 57.9 °F 90% 30.03 in 8.0 mi Calm Calm - N/A   Clear
1:52 AM 59.0 °F - 57.0 °F 93% 30.03 in 8.0 mi Calm Calm - N/A   Clear
2:52 AM 59.0 °F - 55.9 °F 90% 30.02 in 4.0 mi Calm Calm - N/A   Clear
3:00 AM 59.0 °F - 57.0 °F 93% 30.03 in 1.8 mi Calm Calm - N/A   Clear
3:08 AM 57.9 °F - 55.9 °F 93% 30.03 in 3.0 mi Calm Calm - N/A   Clear
3:52 AM 57.9 °F - 55.9 °F 93% 30.04 in 6.0 mi Calm Calm - N/A   Clear
4:00 AM 57.9 °F - 55.9 °F 93% 30.04 in 1.0 mi Calm Calm - N/A   Clear
4:23 AM 57.9 °F - 55.9 °F 93% 30.04 in 1.0 mi Calm Calm - N/A   Clear
4:25 AM 57.9 °F - 55.9 °F 93% 30.04 in 2.5 mi Calm Calm - N/A   Clear
4:32 AM 57.0 °F - 55.0 °F 93% 30.04 in 8.0 mi Calm Calm - N/A   Clear
4:52 AM 57.0 °F - 55.0 °F 93% 30.04 in 7.0 mi Calm Calm - N/A   Clear
5:52 AM 57.0 °F - 54.0 °F 89% 30.05 in 7.0 mi Calm Calm - N/A   Clear
6:52 AM 62.1 °F - 59.0 °F 90% 30.06 in 7.0 mi Calm Calm - N/A   Clear
7:52 AM 68.0 °F - 62.1 °F 81% 30.07 in 10.0 mi Calm Calm - N/A   Clear
8:52 AM 73.9 °F - 63.0 °F 68% 30.08 in 10.0 mi Calm Calm - N/A   Clear
9:52 AM 77.0 °F - 60.1 °F 56% 30.07 in 10.0 mi Variable 4.6 mph - N/A   Clear
10:52 AM 79.0 °F - 61.0 °F 54% 30.07 in 10.0 mi Variable 5.8 mph - N/A   Clear
11:52 AM 80.1 °F 80.7 °F 59.0 °F 48% 30.06 in 10.0 mi South 4.6 mph - N/A   Partly Cloudy
12:52 PM 80.1 °F 81.1 °F 61.0 °F 52% 30.05 in 10.0 mi Variable 6.9 mph - N/A   Mostly Cloudy
1:52 PM 82.0 °F 82.4 °F 60.1 °F 47% 30.04 in 10.0 mi South 4.6 mph - N/A   Partly Cloudy
2:52 PM 80.1 °F 81.2 °F 62.1 °F 54% 30.03 in 10.0 mi South 5.8 mph - N/A   Mostly Cloudy
3:52 PM 81.0 °F 81.7 °F 61.0 °F 50% 30.02 in 10.0 mi Variable 3.5 mph - N/A   Scattered Clouds
4:52 PM 82.0 °F 83.0 °F 62.1 °F 51% 30.01 in 10.0 mi SE 8.1 mph - N/A   Mostly Cloudy
5:52 PM 81.0 °F 81.9 °F 62.1 °F 52% 30.01 in 10.0 mi SE 5.8 mph - N/A   Overcast
6:52 PM 79.0 °F - 62.1 °F 56% 30.01 in - North - - N/A   Unknown
7:52 PM 73.9 °F - 63.0 °F 68% 30.01 in 10.0 mi SSE 4.6 mph - N/A   Clear
8:52 PM 73.0 °F - 62.1 °F 68% 30.01 in 10.0 mi ESE 4.6 mph - N/A   Clear
9:52 PM 70.0 °F - 62.1 °F 76% 30.02 in 10.0 mi SE 4.6 mph - N/A   Clear
10:52 PM 69.1 °F - 63.0 °F 81% 30.02 in 10.0 mi SE 5.8 mph - N/A   Clear
11:52 PM 68.0 °F - 62.1 °F 81% 30.03 in 10.0 mi ESE 4.6 mph - N/A   Clear